Location: Nitra
(0.0000°N, 18.0833°E)
Time: 05:55:33
(UTC+01:00)

Helios 1A Rocket - Pass Details

Date: 24 January 2021
Orbit: 562 x 586 km, 98.3° (Epoch: 04 March)

Event Time Altitude Azimuth Distance (km) Brightness Sun altitude
Rises 19:34:51 0° 183° (S) 2,790 6.7 -22.4°
Reaches altitude 10° 19:37:07 10° 191° (S) 1,893 5.9 -22.9°
Maximum altitude 19:40:53 36° 258° (WSW) 932 4.5 -23.8°
Drops below altitude 10° 19:44:40 10° 325° (NW) 1,895 5.7 -24.7°
Sets 19:46:57 0° 334° (NNW) 2,794 6.5 -25.2°
